GFSWCAN_prec_radar_000.txt.gz
Reflectivity
5 -18 -20 -20 -20 -20 -20 -20 -20 -20 -20 -20 -20 -20 -20 -20 -20 -20 -20 -20 -20 -19 -20 -20 -20 -20 -20 -20 -20 -20 -20 -20 -20 -16 -20 -20 -20 -20 -20 -20 -20 -20 -20 -20 -8 -20 -14 -20 -20 -20 -8 -1 -20 -20
29 8 -20 -20 -20 -20 -20 -20 -20 -20 -20 -20 -20 -20 -20 -20 -20 -20 -20 -20 -20 -20 -20 -20 -20 -20 -20 -20 -20 -20 -20 -20 -20 -13 -19 -2 6 5 -20 -20 -20 -20 -20 -18 -20 -20 -20 -15 -20 -20 -20 -20 -20 7
37 27 18 -13 -20 -20 -20 -20 -20 -20 -20 -20 -20 -20 -20 -20 -20 -20 -20 -20 -20 -16 -20 -20 -20 -20 -20 -20 -20 -20 -20 -20 -20 -20 -20 -2 10 -20 -20 -20 -20 -20 -20 -20 -16 -20 -20 -18 11 -20 -20 -20 -8 4
35 32 22 9 -20 -20 -20 -20 -20 -20 -20 -20 -20 -20 -20 -20 -20 -20 -20 -20 -20 -20 23 -20 -20 -20 -20 -20 -20 -20 -20 -20 -20 -20 0 5 -13 -20 -20 -20 -20 -20 -20 -20 -20 -20 -20 -10 -20 -20 -20 -13 -1 -10
28 30 22 -2 -20 -4 -20 1 -12 -20 -20 -12 -2 1 4 -20 -20 -20 -20 -20 -20 -20 -16 -20 -20 -20 -20 -20 -20 -20 -20 -20 -20 -2 4 -12 -20 -20 2 -18 -20 -14 -20 -20 -8 -20 -2 -12 -20 -20 -20 -20 -8 -1
-2 0 14 14 -20 -20 3 -20 8 -5 -1 7 8 7 8 -6 -20 -20 -20 -20 -20 -20 -15 -6 -20 -20 -20 -20 -20 -20 -20 2 12 -20 -3 -20 -20 -20 10 -20 -17 -15 -20 -20 -20 -20 -20 -20 -20 -20 -20 -18 -20 -20
-20 0 -17 7 18 22 18 0 2 4 -20 5 2 11 11 -20 -13 -17 -20 -20 -20 -20 5 8 19 -20 -20 -20 -20 -20 22 17 14 8 0 -20 -20 10 5 -20 -20 -20 -20 -20 -20 -20 -17 -20 -7 -0 -20 -20 -20 -20
-20 -20 -20 -20 -20 -20 -20 -20 -20 -19 -20 -13 -20 -18 -20 -20 -20 -16 -19 -20 -13 -20 -20 -20 -12 -20 -20 -20 -17 -0 -12 -20 -8 -9 -16 -20 -4 6 6 -20 -20 -20 -20 -20 -20 -20 -20 -19 -20 -20 -20 -20 -20 -20
-20 -11 -20 -20 -20 -20 -20 -20 -20 -20 -20 -2 -16 -13 -17 -18 13 -5 -15 -10 -20 -8 -3 5 -15 -17 -20 -20 -19 -20 -20 -2 -11 13 -4 -5 -16 -14 -20 -20 -20 -20 -20 -20 -20 -20 -20 -20 -20 -20 -20 -20 -20 -20
-20 -20 -20 -20 -20 -20 -20 -20 -16 -20 -1 10 -4 -3 -1 -3 -13 -19 -19 -19 -18 19 -10 5 -5 3 -19 -1 6 -3 -19 8 -1 -2 -12 -20 -20 -20 -20 -20 -20 -20 -20 -20 -20 -20 -20 -20 -20 -20 -20 -20 -20 -20
-20 -20 -20 -20 -20 -20 -20 -19 -15 7 25 15 19 1 5 18 -10 22 10 3 -18 0 -18 -16 3 -11 -20 -11 5 -20 -16 5 -4 -20 -7 -20 -20 -20 -20 -20 -20 -20 -20 -20 -20 -20 -20 -20 -20 -20 -20 -20 -20 -20
-20 -20 -20 -20 -20 -20 -19 -18 4 -3 10 24 23 19 20 27 26 27 30 17 -18 -20 -20 -13 -20 -8 -14 -16 -9 -20 -18 -20 -20 -19 14 3 -20 -17 -20 -20 -20 -20 -20 -20 -20 -20 -20 -20 -20 -20 -20 -20 -20 -20
-20 -20 -20 -20 5 -5 7 2 -5 -9 11 25 32 31 30 33 30 27 18 11 -12 -20 -20 -6 -20 -20 -20 -20 -1 6 12 13 14 17 1 -3 -14 -20 -20 -20 -14 -20 -20 -20 -20 -20 -20 -20 -20 -20 -20 -20 -20 -20
-20 -20 -20 -20 -5 -1 -20 6 6 -10 -16 7 26 25 27 26 32 32 25 21 7 3 -12 -20 -12 -20 -7 -12 26 18 26 14 9 8 5 14 -3 6 -2 -19 -20 -20 -20 -20 -20 -20 -20 -20 -20 -20 -20 -20 -20 -20
-20 -20 -20 -20 -18 -3 -4 -10 -20 -20 -11 -3 16 13 22 29 28 26 28 22 10 21 28 21 24 20 28 15 30 21 14 10 7 17 28 18 10 6 -1 -20 -20 -20 -20 -20 -20 -20 -20 -20 -20 -20 -20 -20 -20 -20
-20 -20 9 -20 -20 -12 7 8 -18 -20 -20 -17 -8 2 20 21 27 32 33 31 31 35 35 31 32 27 18 19 13 14 13 11 30 25 5 7 6 1 -3 -18 -20 -20 -20 -20 -20 -20 -20 -20 -20 -20 -20 -20 -20 -20
-20 10 9 -20 -20 1 -13 -20 12 -18 -18 -16 -20 10 -4 21 27 22 34 32 24 21 27 26 15 19 19 12 10 23 14 17 8 -8 -5 5 2 -13 -20 -20 -20 -20 -20 -20 -20 -20 -20 -20 -20 -20 -20 -20 -20 -20
-4 8 -20 -20 7 -6 -20 -18 -12 -20 -20 -19 -2 -20 -3 -9 3 9 1 -4 -1 9 12 9 5 6 6 14 11 0 -2 4 7 4 -8 -20 -20 -20 -20 -20 -20 -20 -20 -20 -20 -20 -20 -20 -20 -20 -20 -20 -20 -20
-5 -8 1 21 3 -20 -19 -20 -20 -6 -20 -20 -20 -20 -7 -17 -15 -13 -2 -13 -20 -20 -20 -17 -7 -2 0 -10 -13 -15 -3 -13 -13 -17 -20 -20 -20 -20 -20 -20 -20 -20 -20 -20 -20 -20 -20 -20 -20 -20 -20 -20 -20 -20
-13 -7 -20 22 6 -20 -10 -1 -13 14 0 -20 -20 -5 -18 -7 -14 6 8 -16 -20 -13 -19 -20 -13 -19 -15 -20 -20 -20 -20 -20 -20 -20 -20 -20 -20 -20 -20 -20 -20 -20 -20 -20 -20 -20 -20 -20 -18 6 -10 -20 -20 2
13 -20 -8 20 28 -17 -20 -20 -9 2 -20 -17 -20 -1 -20 -9 -11 -15 -9 -6 17 2 -20 -20 -20 -20 -20 -20 -20 -20 -20 -20 -20 -20 -20 -20 -20 -20 -20 -20 -20 -20 -20 -20 -20 -20 -20 -20 -20 -20 -3 -18 12 -20
2 13 -6 23 29 13 -20 -20 -12 -4 4 -4 -17 -15 -20 -18 -20 -20 -20 -14 -9 -19 -20 -20 -20 5 3 -17 -20 -20 -20 -20 -20 -20 -20 -20 -20 -20 -20 -5 -20 -20 -20 -20 -20 -20 -20 10 -17 -2 -1 4 3 -17
15 9 24 24 24 17 20 -8 -14 -18 -9 -13 -13 -20 -20 -20 -20 -20 -20 -20 -20 -20 -20 -20 -11 -20 -20 -20 -20 -20 -20 -20 -20 -20 -20 -20 -20 -20 -10 4 -20 -7 -4 -20 -20 -20 -6 -19 -17 -4 -20 -7 -9 -2
12 29 29 14 26 21 -6 -7 -9 -12 -20 -16 -20 -10 -19 -20 -20 -20 -9 -20 -20 -20 -20 -20 -20 -20 -20 -20 -20 -20 -20 -20 -20 -20 6 7 -13 -20 -8 -7 -18 -1 -10 -18 12 8 -20 -20 -20 -20 -14 -3 -7 11
14 18 29 18 15 -6 -6 -19 -19 -2 -5 -3 -4 -5 -6 -16 -2 -5 -20 -7 -20 -19 -19 -20 -20 -20 -12 -18 5 16 -13 -20 -19 -20 -20 -11 -19 -19 -1 2 -20 -5 -9 -8 4 9 -19 -12 -5 1 -3 6 1 1
26 21 16 12 2 5 -4 -8 -9 -4 -9 -17 -13 -20 -16 -3 -20 -20 -0 -1 -15 -16 -15 -20 -20 -14 -6 -20 -20 -20 -20 -20 -20 -19 -13 -20 -20 -13 -12 1 9 -12 -19 -2 3 1 -5 5 10 10 10 -14 11 11
13 8 -5 -16 -3 -0 11 13 11 -8 -14 -20 -9 -14 -20 -20 -20 -5 -15 -20 -9 -20 -20 -12 -20 -20 -14 -20 -20 -19 -20 -20 -13 1 -14 -20 5 -2 -3 1 -2 0 3 5 5 5 3 4 5 7 8 13 10 10
2 2 -1 4 -4 -20 -20 -20 -20 -20 -20 -20 -20 -20 -20 -20 -10 -16 -20 -20 -20 -20 -19 -12 -20 -20 -20 -20 -17 0 -20 -13 -20 -20 -20 3 11 -20 -19 -2 1 -4 2 -0 3 2 5 6 6 7 2 -2 4 10
-17 1 -20 -20 -20 -20 -20 -20 -20 -20 -20 -16 -11 -3 -14 -20 -15 -10 -17 -20 -20 -20 -20 -19 -19 -20 -7 -4 7 -17 -16 -6 -16 -20 -20 -18 -8 -18 -4 3 0 -1 2 0 -19 -2 1 7 6 6 2 11 2 9
-17 -20 -18 -20 -20 -13 3 -4 -18 -20 -20 -14 -14 -20 -20 -20 1 -20 -5 -8 -14 -3 2 3 1 -3 1 0 -7 -2 -0 -20 -4 -2 -8 -5 3 4 5 3 -3 3 3 2 2 -5 -5 -18 -19 11 -15 -20 -15 6
-20 -20 -20 -14 -6 -11 -20 -20 -20 -20 -20 -20 -10 -11 -16 -18 -0 -9 -15 4 2 -5 -5 -2 -13 2 -0 1 -1 -2 -3 -13 0 -10 -6 2 1 3 3 2 1 4 4 4 1 4 3 -10 3 2 -19 -20 -9 -8
-20 -13 -17 3 9 -1 -20 -20 0 -20 -1 -20 5 -20 -18 -3 -20 -3 -1 -7 -1 -6 -3 -3 -5 -1 -1 0 8 5 -5 1 7 3 4 6 1 1 3 1 3 0 -11 -6 -5 5 -5 -6 -3 -20 -12 -20 -15 -20
-20 -20 -20 -20 -20 -20 -16 -20 -18 -12 0 -7 -9 -20 -20 -10 -20 -4 -0 1 2 -3 -3 -3 -2 -1 5 3 -20 5 -20 -10 -17 -13 1 -9 -17 -16 1 2 4 -20 -20 -19 4 5 -17 -19 -20 -20 -20 -20 -20 -20

GFSWCAN_prec_radar_006.txt.gz
Reflectivity
17 9 -1 -19 -20 -20 -20 -20 -20 -20 -20 -20 -20 -20 -20 -20 -20 -20 -20 -20 -20 -20 -20 -20 -20 -20 -20 -20 -20 -20 -20 -20 -20 -20 -20 -20 -20 -20 -20 -20 -20 -20 -20 -20 -20 -20 -20 -20 -20 -20 -20 -20 -20 -20
10 4 -12 -20 -20 -20 -20 -20 -20 -20 -20 -20 -20 -20 -20 -20 -20 -20 -20 -20 -20 -20 -20 -20 -20 -20 -20 -20 -20 -20 -20 -20 -20 -20 -18 -20 -19 2 -20 -20 -20 -20 -20 -20 -20 -20 -20 -20 -20 -20 -20 -20 -20 -20
2 -16 -20 -20 -20 -20 -20 -20 -20 -20 -20 -20 -20 -19 -18 -20 -20 -20 -20 -20 -20 -20 -20 -20 -20 -20 -20 -20 -20 -20 -20 -20 -20 -20 -20 -20 -20 -20 -20 -20 -20 -20 -20 -20 -20 -20 -20 -20 -20 -20 -20 -20 -20 -20
-20 -20 -20 -20 -20 -20 -20 -20 -20 -20 -20 -3 9 8 6 6 -20 -20 -20 -20 -20 -20 -20 -20 -20 -20 -20 -20 -20 -20 -20 -20 -20 -20 -20 -20 -20 -20 -20 -20 -20 -20 -20 -20 -20 -20 -20 -20 -20 -20 -20 -20 -20 -20
7 -15 -20 -13 7 -5 -11 -20 -20 -2 7 10 7 3 6 3 -7 -20 -20 -20 -20 -20 -20 -20 -20 -20 -20 -20 -20 -20 -20 -20 -20 -20 -20 -20 -20 -20 -17 -20 -20 -16 -20 -20 -20 -20 -20 -20 -20 -20 -20 -20 -20 -20
23 16 -11 -20 -6 -5 8 9 -5 8 10 11 9 5 -20 -20 -20 -20 -20 -20 -20 -20 -20 -20 -20 -20 -20 -20 -20 -20 -20 -20 -20 -20 -20 -15 -20 -20 -20 -20 -15 -20 -20 -20 -20 -20 -20 -20 -20 -20 -20 -20 -20 -20
27 27 5 -9 -20 -20 -0 9 8 -3 10 6 8 -9 -20 -20 -20 -20 -20 -20 -1 -20 -20 -16 -20 -20 -20 -20 -20 -20 -20 -20 -20 -20 -8 -19 -20 -20 -20 -20 -20 -20 -20 -20 -20 -20 -20 -20 -20 -20 -20 -20 -17 -1
29 27 15 -5 -11 1 2 -6 5 -6 7 8 6 -20 -20 -20 -20 -20 -20 -20 -3 -20 -20 -20 -20 -20 -20 -12 -13 -20 -14 -5 -17 -20 -12 -20 -16 -20 -20 -20 -20 -20 -20 -20 -20 -20 -20 -20 -20 -20 -20 1 -1 -15
-20 -17 15 24 0 -20 -20 10 0 -15 -13 10 -18 -20 -20 -20 -20 -20 -20 2 -20 -20 -20 -20 -20 -20 -20 -20 -11 -20 -20 -4 -20 -15 -17 -20 -20 -20 -20 -20 -20 -20 -20 -20 -20 -20 -20 -20 -20 -13 22 12 3 3
-20 -20 -20 -20 -20 -20 -20 -17 11 5 8 -8 -20 -20 -20 -20 -8 -20 -20 -20 -20 -20 -20 -20 -20 -20 -20 -7 -7 12 -20 -10 -20 -20 -15 -20 -20 -20 -20 -20 -20 -20 -20 -20 -20 -20 -20 -19 26 28 5 -19 6 -20
-20 -20 -20 -18 -20 -20 -8 10 9 -2 -20 -20 -20 -10 -20 -10 -20 -20 -11 -14 -20 -20 -20 -20 -20 -20 -20 -20 -20 -20 -20 -20 -20 -20 -20 -20 -20 -20 -20 -20 -20 -20 -20 -20 -20 -17 9 23 14 -19 10 17 -20 -20
-20 -20 -20 0 7 10 -6 -3 12 -1 -15 -20 -17 -20 -8 -20 -20 -20 -20 -20 -20 -20 -16 -1 -11 -20 -20 -20 -20 -20 -20 -20 -20 -20 -20 -20 -20 -20 -20 -20 -20 -20 -20 -18 1 26 29 -4 24 16 -5 -20 -20 -20
-19 7 -20 -20 -10 0 -19 -0 -16 14 18 6 16 26 25 27 33 21 16 2 -9 -18 9 3 -20 -20 -20 -20 15 27 25 9 7 -20 -20 -14 -6 -7 -10 -15 -20 -8 19 33 19 22 23 8 5 -13 -20 -20 -20 -20
-20 -6 -7 -20 8 12 11 -9 -9 1 1 -2 23 21 7 -14 -15 -10 -16 8 14 1 -6 -14 -12 -10 2 19 23 17 21 19 14 5 -19 12 23 21 23 27 16 10 18 25 7 -10 -8 -20 -20 -20 -20 -20 -20 -20
-20 -20 -20 -20 -20 -20 -20 -20 -20 -20 -20 -20 -20 -20 -14 1 -14 0 -20 -3 20 27 28 24 20 17 -8 20 15 15 11 1 -16 -13 -9 25 35 32 17 -12 -8 -2 -0 -2 -5 -11 -16 -20 -20 -20 -20 -20 -20 -20
-20 -20 -20 -20 -20 -20 -20 -20 -20 -20 -20 -20 -20 -16 4 -19 -20 -14 2 1 17 10 14 21 11 15 17 15 -2 -12 -5 11 18 -5 8 30 17 -4 10 8 -2 6 11 2 -20 -20 -20 -20 -20 -20 -20 -20 -20 -20
-20 -20 -20 -20 -20 -20 -20 -20 -20 -20 -20 -20 -20 -20 -20 -20 -20 -12 2 0 9 22 -5 6 -20 -20 -16 3 10 13 16 11 13 20 18 11 7 3 10 15 16 8 2 -0 -19 -20 -20 -20 -20 -20 -20 -20 -20 -20
-8 5 6 -20 -20 -20 -20 -20 -20 -20 -20 -18 -20 12 -17 5 -1 -17 -18 -20 -20 -19 -11 -20 -20 -7 4 -13 -3 2 20 11 21 24 20 6 6 11 2 -5 -14 -20 -20 -20 -20 -20 -20 -20 -20 -20 -20 -20 -20 -20
-16 -14 -11 -16 -20 -20 -20 -20 -17 -20 -20 -8 -10 14 1 0 9 8 10 9 -20 -20 -20 -20 -20 -20 -19 -18 -17 -13 -16 9 1 -7 -8 -11 -16 -17 -20 -20 -20 -20 -20 -20 -20 -20 -20 -20 -20 -20 -20 -20 -20 -20
-20 -20 -20 -11 -20 -20 -20 -20 -18 -20 -11 -20 -6 -20 7 -4 -15 11 3 -8 -8 -19 -20 -20 -20 -20 -20 -20 -20 -20 -20 -20 -20 -20 -20 -20 -20 -20 -20 -20 -20 -20 -20 -20 -20 -20 -20 -20 -20 -20 -20 -20 -20 -20
-10 -20 -20 -20 -20 -20 -20 -20 -9 -19 -20 -20 -19 -2 -20 11 5 5 -9 -20 -20 -20 -20 -20 -20 -20 -20 -20 -20 -20 -20 -20 -20 -20 -20 -20 -20 -20 -20 -20 -20 -20 -20 -20 -20 -20 -20 -20 -20 -20 -20 -20 -20 -20
0 -4 -20 -20 -20 6 7 -20 -14 -20 -20 -20 -17 -15 -20 -4 -20 -20 -20 -20 -20 -20 -20 -20 -20 -20 -20 -20 -20 -20 -20 -20 -20 -20 -20 -20 -20 -20 -20 -20 -20 -20 -20 -20 -20 -20 -20 -20 -20 -20 -18 -13 -20 -20
-19 1 -20 -17 -16 -20 -20 -15 9 -20 -20 -20 -20 -20 -20 -20 -20 -20 -20 -20 -20 -20 -20 -20 -20 -20 -20 -20 -20 -20 -20 -20 -20 -20 -20 -20 -20 -20 -20 -20 -20 -20 -20 -20 -20 -3 -15 -20 -20 -6 -20 -18 3 -10
7 5 -20 -17 2 -20 -20 -17 -11 -19 -20 -20 -20 -20 -20 -20 -20 -20 -20 -20 -20 -20 -20 -20 -20 -20 -20 -20 -20 -20 -20 -20 -20 -20 -20 -20 -20 -20 -20 -20 -20 -20 -15 -19 -20 -20 -20 -20 -20 -20 -13 -6 2 0
-20 -20 -20 -20 -19 -17 -20 -20 -6 5 -20 -20 -20 -20 -20 -20 -20 -20 -20 -20 -20 -20 -20 -20 -20 -20 -20 -20 -20 -20 -20 -20 -20 -20 -20 -20 -20 -20 -20 -20 -20 -20 -20 -20 -20 -20 -20 -20 -20 -20 -20 -20 -6 -18
-17 -18 -20 -20 -20 -20 -20 -20 -20 -20 -20 -15 10 -18 -18 -9 -20 -20 -19 -16 -19 -20 -20 -20 -20 -20 -20 -20 -20 -20 -20 -20 -20 -20 -20 -20 -20 -20 -20 -20 -20 -20 -20 -20 -9 -20 -20 -20 -20 -20 -20 -20 -13 -20
-10 -19 -20 -20 -0 -1 10 2 13 14 -4 -11 -20 -20 3 3 -20 -19 -14 -9 -18 -16 -20 -20 -20 -20 -20 -14 -20 -20 -20 -20 -20 -20 -20 -20 -20 -20 -20 -20 -20 -20 -20 -20 -20 -20 -20 -20 -20 -20 -20 -20 -20 -20
-18 -20 -20 -2 16 14 12 8 12 14 14 14 11 13 3 -19 -20 -17 -16 -2 -16 -20 -20 -20 -20 -20 -20 -20 -20 -20 -20 -20 -20 -19 -20 -20 -20 -20 -20 -20 -20 -20 -20 -20 -20 -20 -20 -20 -20 -20 -20 -19 -15 -2
-13 -1 10 7 -3 -1 9 9 11 13 7 -0 -19 -20 -20 -20 -18 -17 -18 -20 -20 -20 -20 -20 -20 -20 -20 -20 -20 -20 -20 -20 -20 -20 -20 -20 -20 -20 -20 -20 -20 -20 -20 -20 -20 -20 -20 -20 -9 5 -12 -12 -17 -18
-12 -20 -20 -20 -20 -20 -20 -19 -20 -20 -20 -20 -20 -20 -20 -20 -17 -18 -20 -20 -20 -20 -20 -20 -20 -20 -20 -20 -20 -20 -20 -20 -20 -20 -20 -20 -20 -20 -20 -20 -20 -20 -20 -20 -20 -20 -20 -20 -20 -20 -18 -8 -5 -5
-20 -20 -20 -20 -20 -20 -20 -10 -16 -19 -20 -20 -20 -20 -20 -20 -20 -20 -20 -20 -14 -19 -20 -20 -20 -20 -20 -20 -20 -20 -20 -20 -20 -20 -20 -20 -20 -20 -20 -20 -20 -20 -20 -20 -20 -20 -20 -20 -20 -20 -20 -20 -20 -19
-20 -20 -20 -13 -20 -20 -20 -20 -20 -20 -20 -20 -20 -20 -20 -20 -20 -20 -20 -20 -20 -20 -20 -20 -20 -20 -20 -20 -20 -20 -20 -20 -20 -20 -20 -20 -20 -20 -20 -20 -20 -20 -20 -20 -20 -20 -20 -20 -20 -20 -20 -20 -20 -20
-20 -20 -20 -20 -20 -20 -20 -20 -20 -20 -20 -20 -20 -20 -20 -20 -20 -20 -20 -20 -20 -20 -20 -20 -20 -20 -20 -20 -20 -20 -20 -20 -20 -20 -20 -20 -20 -20 -20 -20 -20 -20 -20 -20 -20 -20 -20 -20 -20 -20 -20 -20 -20 -20

GFSWCAN_prec_radar_009.txt.gz
Reflectivity
-20 -20 -20 -20 -20 -20 -20 -20 -20 -20 -20 -20 -20 -20 -20 -20 -20 -9 -20 -20 -20 -20 -20 -20 -20 -20 -20 -20 -20 -20 -20 -20 -20 -20 -20 -20 -20 -20 -20 -20 -20 -20 -20 -20 -20 -20 -20 -20 -20 -20 -20 -20 -20 -20
-20 -20 -20 -20 -20 7 -18 -20 -20 -20 -20 -20 -20 -7 -9 -20 -20 -20 -20 -20 -20 -20 -20 -20 -20 -20 -20 -20 -20 -20 -20 -20 -20 -20 -20 -20 -20 -20 -20 -20 -20 -20 -20 -20 -20 -20 -20 -20 -20 -20 -20 -20 -20 -20
-20 -20 -19 -20 -10 11 -20 -20 -20 -20 -16 7 11 9 7 3 -20 -20 -20 -20 -20 -20 -20 -20 -20 -20 -20 -20 -20 -20 -20 -20 -20 -20 -20 -20 -20 -20 -20 -20 -20 -20 -20 -20 -20 -20 -20 -20 -20 -20 -20 -20 -20 -20
-20 -20 -5 -20 -13 -1 -20 -20 -20 -13 7 5 8 6 6 5 -20 -20 -20 -20 -20 -20 -20 -20 -20 -20 -20 -20 -20 -20 -20 -20 -20 -20 -20 -20 -20 -20 -20 -20 -20 -20 -20 -20 -20 -20 -20 -20 -20 -20 -20 -20 -20 -20
-1 -5 -9 -18 4 -20 -20 -18 7 4 -4 -20 -20 -17 -2 -20 -4 -20 -20 -20 -20 -20 -20 -20 -20 -20 -20 -20 -20 -20 -20 -20 -20 -20 -20 -20 -20 -20 -20 -20 -20 -20 -20 -20 -20 -20 -20 -20 -20 -20 -20 -20 -20 -20
17 8 -11 1 22 -20 -16 1 7 6 7 -7 6 -19 -20 -20 -20 -20 -20 -20 -20 -20 -20 -20 -20 -20 -20 -20 -20 -20 -20 -20 -20 -20 -20 -20 -20 -20 -20 -20 -16 -20 -20 -20 -20 -20 -20 -20 -20 -20 -20 -20 -20 -20
-1 -1 -6 11 12 -3 -6 -20 7 8 8 9 1 -20 -3 -20 -20 -20 -20 -16 8 -20 -20 -20 -15 -20 -20 -20 -20 -20 -20 -20 -20 -20 -20 -20 -20 -20 -20 -20 -20 -20 -20 -20 -20 -20 -20 -20 -20 -20 -20 -20 -20 -20
6 1 -7 -8 10 4 8 -20 -1 7 8 11 -20 -20 -20 -20 -20 -20 -20 -2 -15 -20 -20 -20 -20 -20 -20 -14 -11 -20 -13 -20 -20 -15 -7 -11 -10 -20 -12 -20 -20 -20 -20 -20 -20 -20 -20 -20 -20 -20 -20 -20 -19 -7
15 -3 -9 -14 -20 2 -6 -20 -20 8 11 8 -20 -20 -20 -20 -20 -12 -17 -18 -20 -20 -20 -18 -20 -20 -20 -20 -6 -20 -18 -4 -20 -5 -15 -20 -2 -20 -20 -20 -20 -20 -20 -20 -20 -20 -20 -20 -20 -20 -18 -9 3 31
24 19 5 -13 -20 -18 6 -19 -7 9 -2 -20 -20 -20 -20 -20 -12 -20 -20 -20 -20 -20 -20 -5 -18 -20 -20 -19 -16 -20 -3 -20 -20 -20 -20 -19 -20 -20 -20 -20 -20 -20 -20 -20 -20 -20 -20 -20 -20 -20 -19 31 29 16
-20 -20 2 4 -19 -6 7 -8 -20 -20 -20 -20 -20 -4 -20 -20 -20 -20 -19 -20 -14 -20 -12 -20 -8 -15 -20 -20 -20 -20 -20 -20 -20 -20 -12 -19 -20 -20 -20 -20 -20 -20 -20 -20 -20 -20 -20 -16 5 35 28 17 24 -11
3 3 -16 -17 9 10 13 2 -17 -20 -20 -20 -20 -20 -20 -20 -20 -20 -9 -3 -8 -20 -9 -17 -20 -20 -20 -20 -20 -20 -20 -20 -20 -20 -6 -2 -20 -20 -20 -20 -20 -20 -20 -20 -20 -20 -7 24 35 21 0 -5 5 3
0 6 1 -16 -19 8 4 10 -10 -20 -20 -20 -20 -20 -20 -20 -20 -20 -20 -0 -20 -20 1 -20 -20 -20 -20 -20 -6 -0 5 -15 -19 -20 -20 -9 -16 -20 -20 -20 -19 4 17 23 31 32 26 17 -3 1 7 5 -7 -20
4 5 4 8 5 6 1 -5 -13 11 11 16 9 26 -6 -4 -6 2 -20 -16 -2 -6 -12 -19 -19 -18 -8 13 24 14 17 13 2 -6 -17 12 24 31 30 23 0 6 -1 1 5 2 10 12 10 8 8 -20 -20 -20
-20 -16 -20 -20 -20 -20 -20 -5 5 -6 -0 1 -14 -16 -15 -15 8 3 -12 9 14 17 21 12 16 17 11 15 -8 12 11 10 -14 -20 -6 24 27 28 12 -1 -11 -2 6 9 6 6 6 4 1 -9 -18 -20 -20 -20
-20 -20 -20 -20 -20 -20 -20 -20 -20 -20 -20 -20 -20 -16 -6 -20 -20 -17 -18 -18 -7 5 15 20 3 4 11 16 -4 -16 -20 -20 -19 -9 17 27 -17 1 23 23 11 -4 -11 -20 -20 -20 -20 -20 -20 -20 -20 -20 -20 -20
-20 -20 -20 -20 -20 -20 -20 -20 -20 -20 -20 -20 -20 -20 -20 -20 -20 -15 -3 -12 -11 -9 -20 -20 -20 -20 -6 -6 -8 0 6 1 32 26 25 24 12 4 5 10 10 7 2 -3 -10 -19 -19 -20 -20 -20 -20 -20 -20 -20
-20 -20 -20 -20 -20 -20 -20 -20 -20 -20 -20 -16 -8 -18 -19 -19 10 -12 -0 -20 -20 1 -20 -20 -20 -20 -20 -20 -20 7 16 -20 6 -0 3 19 6 7 6 4 0 -4 -10 -20 -20 -20 -20 -20 -20 -20 -20 -20 -20 -20
-20 -20 -20 -20 -20 -20 -20 -20 -20 -20 -20 -15 -14 2 -7 2 -18 -14 1 -10 -20 -20 -20 -20 -20 -20 -20 -20 -20 -18 -20 -20 -20 -20 -20 -20 -20 -20 -20 -20 -20 -20 -20 -20 -20 -20 -20 -20 -20 -20 -20 -20 -20 -20
-20 -20 -20 -20 -20 -20 -20 -20 -20 -20 -20 -20 -2 2 -12 -13 -1 11 5 -17 -20 -20 -20 -20 -20 -20 -20 -20 -20 -20 -20 -20 -20 -20 -20 -20 -20 -20 -20 -20 -20 -20 -20 -20 -20 -20 -20 -20 -20 -20 -20 -15 -18 -20
-20 -20 -20 -20 -20 -20 -20 -20 -20 -20 -20 -20 -20 -20 -20 -20 2 6 -3 -12 -20 -20 -20 -20 -20 -20 -20 -20 -20 -20 -20 -20 -20 -20 -20 -20 -20 -20 -20 -20 -20 -20 -20 -20 -20 -13 -2 -20 -20 -20 -20 -20 -20 -20
-20 -20 -20 -20 -20 -20 -20 -20 -20 -20 -20 -20 -17 -7 -20 -2 8 4 -20 -17 -20 -20 -20 -20 -20 -20 -20 -20 -20 -20 -20 -20 -20 -20 -20 -20 -20 -20 -20 -20 -20 -20 -20 -20 -20 -20 -20 -20 -6 -16 -11 -19 -16 -15
-20 -20 -20 -20 -20 -20 -20 -20 -6 -20 -20 -20 -20 -20 -20 -20 -20 -20 -20 -20 -20 -20 -20 -20 -20 -20 -19 9 0 -5 -20 -20 -20 -20 -20 -20 -20 -20 -20 -20 -20 -20 -20 -20 -15 -20 -20 -20 -20 -20 -20 -20 -20 -20
-20 -20 -20 -20 -17 -20 -17 -20 -20 -20 -20 -20 -20 -20 -20 -20 -20 -20 -20 -20 -20 -20 -5 -19 -20 -20 -20 -20 -20 -20 -20 -20 -20 -20 -20 -20 -20 -20 -20 -20 -20 -20 -20 -20 -20 -20 -20 -20 -20 -20 -20 -20 -20 -20
-20 -20 -9 -20 -17 -19 -20 -20 -20 -20 -20 -20 -20 -20 -20 -20 -20 -20 -20 -20 -20 -20 -19 -20 -20 -17 -20 -20 -20 -20 -20 -20 -20 -20 -20 -20 -20 -20 -20 -20 -20 -20 -20 -20 -20 -20 -20 -20 -20 -20 -20 -20 -20 -20
-20 -20 -20 -20 -20 -20 -20 -20 -20 -20 -20 -20 -4 -20 -20 -0 0 -1 -20 -17 -18 -15 -20 -20 -20 -20 -20 -20 -20 -20 -14 -20 -20 -20 -20 -20 -20 -20 -20 -20 -20 -20 -20 -20 -20 -20 -20 -20 -20 -20 -20 -20 -20 -20
-20 -20 -20 -20 -20 -14 4 11 1 -4 -14 -2 -2 -20 -8 14 3 1 -11 -9 6 -5 -13 -20 -20 -20 -20 -20 -20 -20 -20 -20 -20 -20 -20 -20 -20 -20 -20 -20 -20 -20 -20 -20 -20 -20 -20 -20 -20 -20 -20 -20 -20 -20
-20 -20 -20 -20 -20 10 1 -20 0 -3 6 9 11 13 11 -8 -18 0 6 1 -9 -17 -19 -19 -20 -20 -20 -20 -20 -20 -20 -20 -20 -20 -20 -20 -20 -20 -20 -20 -20 -20 -20 -20 -20 -20 -20 -20 -20 -20 -20 -20 -20 -20
-20 -20 -20 -20 -20 -20 -20 -5 5 4 2 9 -5 -3 -9 -20 -19 -20 -19 -18 -20 -20 -20 -20 -20 -20 -20 -20 -20 -20 -20 -20 -20 -20 -20 -20 -20 -20 -20 -20 -20 -20 -20 -20 -20 -20 -20 -20 -20 -20 -20 -20 -20 -20
-20 -20 -20 -20 -20 -20 -20 -20 -20 -20 -19 -20 -20 -20 -20 -20 -20 -19 -20 -20 -20 -20 -20 -20 -20 -20 -20 -20 -20 -20 -20 -20 -20 -20 -20 -20 -20 -20 -20 -20 -20 -20 -20 -20 -20 -20 -20 -20 -20 -20 -20 -20 -20 -20
-20 -20 -20 -20 -20 -20 -20 -19 -19 -20 -20 -20 -20 -20 -20 -20 -20 -20 -20 -20 -20 -20 -20 -20 -20 -20 -20 -20 -20 -20 -20 -20 -20 -20 -20 -20 -20 -20 -20 -20 -20 -20 -20 -20 -20 -20 -20 -20 -20 -20 -20 -20 -20 -20
-20 -20 -20 -20 -20 -20 -20 -20 -20 -20 -20 -20 -20 -20 -20 -20 -20 -20 -20 -20 -20 -20 -20 -20 -20 -20 -20 -20 -20 -20 -20 -20 -20 -20 -20 -20 -20 -20 -20 -20 -20 -20 -20 -20 -20 -20 -20 -20 -20 -20 -20 -20 -20 -20
-20 -20 -20 -20 -20 -20 -20 -20 -20 -20 -20 -20 -20 -20 -20 -20 -20 -20 -20 -20 -20 -20 -20 -20 -20 -20 -20 -20 -20 -20 -20 -20 -20 -20 -20 -20 -20 -20 -20 -20 -20 -20 -20 -20 -20 -20 -20 -20 -20 -20 -20 -20 -20 -20

GFSWCAN_prec_radar_012.txt.gz
Reflectivity
23 -4 -20 -20 -20 -20 -20 -20 -20 -20 -20 -20 -20 -20 -20 -20 -20 -20 -20 -20 -20 -20 -20 -20 -20 -20 -20 -20 -20 -20 -20 -20 -20 -20 -20 -20 -20 -20 -20 -20 -20 -20 -20 -20 -20 -20 -20 -20 -20 -20 -20 -20 -20 -20
20 -9 -20 -20 -20 -20 -20 -20 -4 -20 -20 6 4 13 2 -20 -20 29 9 -20 -20 -20 -20 -20 -20 -20 -20 -20 -20 -20 -20 -20 -20 -20 -20 -20 -20 -20 -20 -20 -20 -20 -20 -20 -20 -20 -20 -20 -20 -20 -20 -20 -20 -20
-8 -20 -20 -20 -20 -20 -20 -20 -12 7 9 5 7 11 9 -20 8 23 -13 -20 -20 -20 -20 -20 -20 -20 -20 -20 -20 -20 -20 -20 -20 -20 -20 -20 -20 -20 -20 -20 -20 -20 -20 -20 -20 -20 -20 -20 -20 -20 -20 -20 -20 -20
-20 -20 -20 -20 -20 -20 -20 -10 8 14 12 -2 1 10 11 -20 1 -17 -20 -20 -20 -20 -20 -20 -20 -20 -20 -20 -20 -20 -20 -20 -20 -20 -20 -20 -20 -20 -20 -20 -20 -20 -20 -20 -20 -20 -20 -20 -20 -20 -20 -20 -20 -20
3 -16 -20 -20 -20 -20 -12 -2 7 10 4 6 -8 -20 -19 -20 -20 -20 -20 -20 -20 -20 -20 -13 -20 -20 -20 -20 -20 -20 -20 -20 -20 -20 -20 -20 -20 -20 -20 -20 -20 -20 -20 -20 -20 -20 -20 -20 -20 -20 -20 -20 -20 -20
-20 -19 -20 -20 21 14 -1 -1 10 10 10 8 8 3 -20 -15 -20 -20 -20 -20 -20 -20 -20 -20 -20 -20 -20 -20 -20 -20 -20 -20 -20 -20 -20 -20 -20 -20 -20 -20 -20 -20 -20 -20 -20 -20 -20 -20 -20 -20 -20 -20 -20 -20
-18 -20 -20 -16 25 3 6 1 8 9 4 -20 -20 -20 -20 -20 -20 -20 -19 -13 12 -20 -20 -20 -20 -20 -20 -20 -20 -20 -20 -20 -20 -20 -20 -20 -11 -20 -20 -20 -20 -20 -20 -20 -20 -20 -20 -20 -20 -20 -20 -20 -20 -20
-2 8 10 5 25 8 -16 8 8 2 -6 -20 -20 -20 -20 -20 -20 -20 -19 -10 -20 -20 -20 -20 -20 -20 -20 -11 -12 -20 -8 -20 -20 -17 12 -0 -15 -5 -16 -20 -20 -20 -20 -20 -20 -20 -20 -20 -20 -20 -20 -20 -20 -16
-8 -6 -15 -20 28 4 -19 8 8 -7 -20 -18 -17 -19 -20 -20 -20 -20 -20 -20 -20 -20 -20 -20 -20 -20 -20 -20 -20 -20 -20 -10 -20 -20 -19 -20 -6 -20 -20 -20 -20 -20 -20 -20 -20 -20 -20 -20 -20 -20 -20 -20 -13 16
-20 -16 -20 7 10 27 -18 -17 11 -20 -20 -20 -20 -20 -20 -20 -20 -20 -20 -20 -20 -20 -20 -20 -19 -19 -19 -14 -18 -10 -19 -9 -19 -20 2 -15 -20 -20 -20 -20 -20 -20 -20 -20 -20 -20 -20 -20 -20 -20 -20 -19 16 27
12 -3 -4 4 -5 -13 9 11 6 -12 -20 -20 -20 -10 -20 -20 -20 -20 -20 -20 -20 -20 -1 -14 -20 -13 -20 -20 -20 1 -12 -15 -12 -20 -19 -20 -20 -20 -20 -20 -20 -20 -20 -20 -20 -20 -20 -16 8 -1 25 27 15 8
23 15 11 12 7 -18 -19 -20 -20 -20 -20 -20 -20 -20 -20 -20 -20 -20 -20 -2 -20 -20 -18 6 -18 -20 -17 -20 -7 -20 -20 -4 -20 -20 -10 -11 -20 -20 -20 -20 -20 -20 -20 -20 -20 -12 -2 18 5 -7 12 12 9 6
-3 11 26 22 -3 -20 -20 -20 -20 -20 -20 -20 -20 -20 -20 -20 -20 -20 -20 -20 -20 -20 -20 -20 -20 -20 -20 -20 -20 -20 -20 -20 -20 -20 -19 -9 -1 10 20 14 14 21 -8 -7 2 10 16 8 7 6 5 5 8 10
-16 -1 -18 -13 10 -0 -2 -20 -20 -20 -20 -20 -20 -20 -20 -20 -20 -20 -20 -20 -20 -20 -20 -20 -20 -20 -20 -16 8 0 15 -2 -4 -20 -20 -6 22 28 29 23 15 -7 -6 -15 -18 -20 -20 -13 1 3 2 0 -6 -2
-20 -20 -20 -20 -15 6 11 4 13 7 -2 11 -18 -9 -14 -20 -19 -10 -4 -6 -1 -3 -8 -15 -1 -3 8 22 -17 -12 -20 -20 -19 -20 -12 -13 22 -5 -10 1 -8 -20 -20 -20 -20 -20 -15 -15 -19 -14 -12 -12 -11 -13
-20 -20 -20 -20 -20 -20 -20 -2 -8 -15 -7 -20 -20 -20 -15 -20 -19 10 14 12 12 5 6 18 -1 -13 -14 -1 -18 -20 -20 -20 -20 -20 -6 -13 -3 7 13 19 -20 -20 -20 -20 -20 -20 -20 -20 -20 -20 -20 -20 -20 -20
-20 -20 -20 -20 -20 -20 -20 -20 -20 -20 -20 -18 -20 -20 -20 -20 -20 -12 -4 -3 -6 -7 -18 -15 -10 -19 -9 -19 -19 -20 -20 -20 -20 15 19 -1 -1 9 4 5 -0 -2 -10 -20 -20 -20 -20 -20 -20 -20 -20 -20 -20 -20
-20 -20 -20 -20 -20 -20 -20 -20 -20 -20 -20 4 1 9 -16 1 11 9 13 -20 -16 -20 -20 -20 -20 -20 -20 -20 -20 -20 -20 -20 -20 -20 -19 -15 -20 -20 -20 -20 -20 -20 -20 -20 -20 -20 -20 -20 -20 -20 -20 -20 -20 -20
-20 -20 -20 -20 -20 -20 -20 -20 -20 -20 -14 3 0 8 7 5 -17 -1 3 -11 -20 -20 -20 -20 -20 -20 -20 -20 -20 -20 -20 -20 -20 -20 -20 -19 -20 -20 -20 -20 -20 -20 -20 -20 -20 -20 -20 -20 -20 -20 -20 -20 -20 -20
-20 -20 -20 -20 -20 -20 -20 -20 -20 -20 -20 -20 -19 -10 -4 0 4 3 14 5 -20 -20 -20 -20 -20 -20 -20 -20 -20 -20 -20 -20 -20 -20 -20 -20 -20 -20 -20 -20 -20 -20 -20 -20 -20 -20 -20 -20 -20 -20 -20 -20 -20 -5
-20 -20 -20 -20 -20 -20 -20 -20 -20 -20 -20 -20 -20 -20 -20 -20 -20 0 5 -8 -18 -20 -20 -20 -20 -20 -20 -20 -20 -20 -20 -20 -20 -20 -20 -20 -20 -20 -20 -20 -20 -20 -20 -20 -20 -20 -20 -20 -20 -20 -20 -20 -20 -20
-20 -20 -20 -20 -20 -20 -20 -20 -20 -20 -20 -20 -20 -20 -20 -20 -20 -20 -20 -20 -20 -20 -20 -20 -20 -20 -20 -20 -20 -20 -20 -20 -20 -20 -20 -20 -20 -20 -20 -20 -20 -20 -20 -20 -20 -20 -20 -20 -20 -20 -20 -20 -20 -20
-20 -20 -20 -20 -20 -20 -20 -20 -20 -20 -20 -20 -20 -20 -20 -20 -20 -20 -20 -20 -20 -20 -20 -20 -19 -17 -20 -20 -13 9 -7 -20 -20 -20 -20 -20 -20 -20 -20 -20 -20 -20 -20 -20 -20 -20 -20 -20 -20 -20 -20 -20 -20 -20
-20 -20 -20 -20 -20 -20 -20 -20 -15 -20 -20 -20 -20 -20 -20 -20 -20 -20 -20 -20 -20 -20 -20 -20 -20 -18 6 7 9 -3 -18 -20 -20 -20 -20 -20 -20 -20 -20 -20 -20 -20 -20 -20 -20 -20 -20 -20 -20 -20 -20 -20 -20 -20
-20 -20 -20 -20 -20 -20 -20 -20 -20 -20 -20 -20 -20 -20 -20 -20 -20 -20 -20 -20 -20 -20 -18 -3 -8 -9 -20 -20 -20 -20 -20 -20 -20 -20 -20 -20 -20 -20 -20 -20 -20 -20 -20 -20 -20 -20 -20 -20 -20 -20 -20 -20 -20 -20
-20 -20 -20 -20 -20 -20 -20 -20 -20 -20 -20 -20 -20 -20 -20 -20 -20 -20 -20 -17 -6 7 12 14 7 -15 -20 -20 -20 -20 -20 -19 -19 -20 -20 -20 -20 -20 -20 -20 -20 -20 -20 -20 -20 -20 -20 -20 -20 -20 -20 -20 -20 -20
-20 -20 -20 -20 -20 -20 -20 -20 -20 -19 -18 -20 -20 -5 16 -0 -11 -6 10 4 15 19 17 10 -4 -15 -20 -20 -20 -20 -20 -20 -20 -20 -20 -20 -20 -20 -20 -20 -20 -20 -20 -20 -20 -20 -20 -20 -20 -20 -20 -20 -20 -20
-20 -20 -20 -20 -20 -19 -18 -20 -20 -0 1 2 -10 -19 1 -1 -4 2 9 12 7 4 -5 -10 -1 -9 -20 -20 -20 -20 -20 -20 -20 -20 -20 -20 -20 -20 -20 -20 -20 -20 -20 -20 -20 -20 -20 -20 -20 -20 -20 -20 -20 -20
-20 -20 -20 -20 -20 -9 -16 -20 -20 -20 -19 -18 -20 -20 -11 -20 -20 -20 -20 -20 -20 -20 -20 -20 -20 -20 -20 -20 -20 -20 -20 -20 -20 -20 -20 -20 -20 -20 -20 -20 -20 -20 -20 -20 -20 -20 -20 -20 -20 -20 -20 -20 -20 -20
-20 -20 -20 -20 -20 -20 -20 -20 -20 -20 -20 -20 -20 -20 -20 -20 -20 -20 -20 -20 -20 -20 -20 -20 -20 -20 -20 -20 -20 -20 -20 -20 -20 -20 -20 -20 -20 -20 -20 -20 -20 -20 -20 -20 -20 -20 -20 -20 -20 -20 -20 -20 -20 -20
-20 -20 -20 -20 -20 -20 -20 -19 -18 -20 -11 -20 -20 -20 -20 -20 -20 -20 -20 -20 -20 -20 -20 -20 -20 -20 -20 -20 -20 -20 -20 -20 -20 -20 -20 -20 -20 -20 -20 -20 -20 -20 -20 -20 -20 -20 -20 -20 -20 -20 -20 -20 -20 -20
-20 -20 -20 -20 -20 -20 -20 -20 -20 -20 -20 -20 -20 -20 -20 -20 -20 -20 -20 -20 -20 -20 -20 -20 -20 -20 -20 -20 -20 -20 -20 -20 -20 -20 -20 -20 -20 -20 -20 -20 -20 -20 -20 -20 -20 -20 -20 -20 -20 -20 -20 -20 -20 -20
-20 -20 -20 -20 -20 -20 -20 -20 -20 -20 -20 -20 -20 -20 -20 -20 -20 -20 -20 -20 -20 -20 -20 -20 -20 -20 -20 -20 -20 -20 -20 -20 -20 -20 -20 -20 -20 -20 -20 -20 -20 -20 -20 -20 -20 -20 -20 -20 -20 -20 -20 -20 -20 -20